GW1174 Weather Reports


time (UTC)temp
C
wind
direction
speed
KPH
gust
KPH
rain 1hr
cm
rain 24hr
cm
rain mn
cm
humidity
%
barometer
mb
20260508130516 16 45 1.6 6.4 0.00 0.13 0.00 69 1017.6
20260508125516 15 338 1.6 4.8 0.00 0.13 0.00 73 1017.8
20260508124516 15 0.0 4.8 0.00 0.13 0.00 69 1017.9
20260508123516 13 0.0 3.2 0.00 0.13 0.00 69 1017.7
20260508122515 13 0.0 4.8 0.00 0.13 0.00 71 1017.7
20260508121516 13 0.0 1.6 0.00 0.13 0.00 71 1017.8
20260508120516 13 0.0 1.6 0.00 0.13 0.00 72 1017.6
20260508115515 12 45 1.6 4.8 0.00 0.13 0.00 69 1017.7
20260508114515 13 0.0 3.2 0.00 0.13 0.00 72 1017.6
20260508113515 13 23 1.6 6.4 0.00 0.13 0.00 73 1017.7
20260508112517 13 0 1.6 3.2 0.00 0.13 0.00 74 1017.7
20260508111516 13 0.0 1.6 0.00 0.13 0.00 77 1017.6
20260508110517 12 0.0 1.6 0.00 0.13 0.00 78 1017.6
20260508105517 12 0.0 4.8 0.00 0.13 0.00 77 1017.6
20260508104518 12 0.0 1.6 0.00 0.13 0.00 77 1017.6
20260508103517 12 0.0 4.8 0.00 0.13 0.00 78 1017.5
20260508102517 13 23 1.6 4.8 0.00 0.13 0.00 78 1017.6
20260508101518 13 23 1.6 4.8 0.00 0.13 0.00 76 1017.7
20260508100518 13 23 1.6 6.4 0.00 0.13 0.00 76 1017.7
20260508095517 13 0.0 4.8 0.00 0.13 0.00 81 1017.7
20260508094517 12 45 1.6 6.4 0.00 0.13 0.00 79 1017.6
20260508093517 12 0.0 3.2 0.00 0.13 0.00 78 1017.9
20260508092617 12 45 1.6 6.4 0.00 0.13 0.00 80 1018.0
20260508091517 12 0 1.6 6.4 0.00 0.13 0.00 83 1018.0
20260508090517 12 0.0 1.6 0.00 0.13 0.00 87 1018.0
20260508085517 11 0.0 4.8 0.00 0.13 0.00 88 1017.9
20260508084517 11 0.0 4.8 0.00 0.15 0.00 89 1018.0
20260508083517 10 0.0 0.0 0.00 0.15 0.00 89 1018.0
20260508082517 10 0.0 3.2 0.00 0.15 0.00 90 1018.1
20260508081537 10 0.0 1.6 0.00 0.15 0.00 90 1018.0
20260508080517 9 90 1.6 4.8 0.00 0.15 0.00 91 1018.0
20260508075537 9 0.0 0.0 0.00 0.15 0.00 91 1017.9
20260508074537 9 90 1.6 4.8 0.00 0.15 0.00 92 1017.8
20260508073517 9 45 1.6 6.4 0.00 0.15 0.00 92 1017.8
20260508072517 9 0.0 3.2 0.00 0.15 0.00 93 1017.6
20260508071517 8 0.0 1.6 0.00 0.15 0.00 93 1017.5
20260508070517 8 0.0 0.0 0.00 0.15 0.00 93 1017.3
20260508065517 8 0 1.6 4.8 0.00 0.15 0.00 93 1017.3
20260508064517 8 0.0 1.6 0.00 0.15 0.00 93 1017.2
20260508063517 8 0.0 0.0 0.00 0.15 0.00 94 1017.1
20260508062517 8 0.0 3.2 0.00 0.15 0.00 94 1016.9
20260508061517 8 0.0 0.0 0.00 0.15 0.00 94 1016.8
20260508060517 8 0.0 1.6 0.00 0.15 0.00 94 1016.8
20260508055517 8 0.0 0.0 0.00 0.15 0.00 94 1016.7
20260508054537 8 0.0 1.6 0.00 0.15 0.00 94 1016.5
20260508053537 8 0.0 1.6 0.00 0.15 0.00 94 1016.3
20260508052517 7 0.0 1.6 0.00 0.15 0.00 94 1016.2
20260508051537 7 0.0 1.6 0.00 0.15 0.00 94 1016.2
20260508050517 7 0.0 1.6 0.00 0.15 0.00 94 1016.2
20260508045516 7 0.0 0.0 0.00 0.15 0.00 94 1016.1
20260508044517 7 0.0 1.6 0.00 0.15 0.00 94 1016.1
20260508043517 7 0.0 0.0 0.00 0.15 0.00 94 1016.1
20260508042516 7 0.0 0.0 0.00 0.15 0.00 94 1016.0
20260508041516 7 0.0 0.0 0.00 0.15 0.00 94 1016.0
20260508040516 7 0.0 1.6 0.00 0.15 0.00 94 1015.9
20260508035517 7 0.0 3.2 0.00 0.15 0.00 94 1015.9
20260508034537 7 23 1.6 4.8 0.00 0.15 0.00 94 1015.9
20260508033517 7 23 1.6 4.8 0.00 0.15 0.00 94 1015.9
20260508032536 7 0 1.6 6.4 0.00 0.15 0.00 94 1015.8
20260508031516 7 0.0 3.2 0.00 0.15 0.00 94 1015.8
20260508030517 7 0.0 1.6 0.00 0.15 0.00 94 1015.9
20260508025517 7 0.0 1.6 0.00 0.15 0.00 94 1015.7
20260508024537 7 0.0 1.6 0.00 0.15 0.00 94 1015.7
20260508023516 7 0.0 0.0 0.00 0.15 0.00 94 1015.7
20260508022516 7 0.0 0.0 0.00 0.15 0.00 94 1015.7
20260508021517 7 0.0 0.0 0.00 0.15 0.00 94 1015.7
20260508020516 7 0.0 0.0 0.00 0.15 0.00 94 1015.8
20260508015536 7 0.0 0.0 0.00 0.15 0.00 94 1015.8
20260508014517 7 0.0 0.0 0.00 0.15 0.00 94 1016.0
20260508013600 7 0.0 1.6 0.00 0.15 0.00 94 1016.0
20260508012516 7 0.0 1.6 0.00 0.15 0.00 94 1016.0
20260508011516 7 0.0 0.0 0.00 0.15 0.00 93 1015.8
20260508010516 7 0.0 1.6 0.00 0.15 0.00 93 1015.8
20260508005516 7 0.0 1.6 0.00 0.15 0.00 93 1015.8
20260508004516 7 0.0 1.6 0.00 0.15 0.00 94 1016.0
20260508003556 8 0.0 0.0 0.00 0.15 0.00 94 1016.1
20260508002516 8 0.0 0.0 0.00 0.15 0.00 93 1016.1
20260508001516 8 0.0 0.0 0.00 0.15 0.00 93 1016.1
20260508000516 8 0.0 0.0 0.00 0.15 0.00 93 1016.1
20260507235516 8 0.0 0.0 0.00 0.15 0.00 93 1016.1
20260507234516 8 0.0 0.0 0.00 0.15 0.00 93 1016.2
20260507233516 8 0.0 0.0 0.00 0.15 0.00 93 1016.2
20260507232536 8 0.0 0.0 0.00 0.15 0.00 93 1016.2
20260507231516 8 0.0 1.6 0.00 0.15 0.00 93 1016.1
20260507230516 8 0.0 0.0 0.00 0.15 0.00 93 1016.3
20260507225516 8 0.0 0.0 0.00 0.15 0.00 93 1016.2
20260507224516 8 0.0 0.0 0.00 0.15 0.00 93 1016.2
20260507223518 8 0.0 0.0 0.00 0.15 0.00 93 1016.2
20260507222516 8 0.0 0.0 0.00 0.15 0.00 93 1016.0
20260507221516 7 0.0 0.0 0.00 0.15 0.00 93 1016.1
20260507220536 7 0.0 0.0 0.03 0.18 0.00 93 1016.1
20260507215517 7 0.0 1.6 0.03 0.18 0.18 92 1016.1
20260507214517 7 0.0 1.6 0.03 0.18 0.18 92 1015.8
20260507213517 8 0 1.6 6.4 0.03 0.18 0.18 92 1015.8
20260507212517 8 45 1.6 6.4 0.03 0.18 0.18 92 1015.8
20260507211517 8 0.0 1.6 0.03 0.18 0.18 92 1015.8
20260507210517 8 0.0 1.6 0.00 0.15 0.15 92 1015.7
20260507205537 8 0.0 1.6 0.03 0.15 0.15 92 1015.7
20260507204516 8 0.0 3.2 0.05 0.15 0.15 92 1015.6
20260507203516 8 0.0 4.8 0.05 0.18 0.15 92 1015.5
20260507202516 8 0.0 3.2 0.05 0.20 0.15 92 1015.5
20260507201536 9 0.0 1.6 0.05 0.23 0.15 92 1015.3
20260507200517 9 0.0 0.0 0.05 0.30 0.15 91 1015.3
20260507195516 9 0.0 0.0 0.05 0.36 0.15 91 1015.2
20260507194517 9 0.0 0.0 0.03 0.41 0.13 91 1015.1
20260507193556 9 0.0 0.0 0.03 0.43 0.13 91 1015.0
20260507192516 9 0.0 0.0 0.03 0.46 0.13 90 1014.9
20260507191517 9 0.0 0.0 0.03 0.51 0.13 90 1014.9
20260507190517 9 0.0 3.2 0.03 0.51 0.13 90 1014.7
20260507185516 9 293 3.2 8.0 0.00 0.51 0.10 89 1014.7
20260507184516 9 293 1.6 4.8 0.00 0.51 0.10 89 1014.5
20260507183537 9 293 1.6 3.2 0.00 0.51 0.10 89 1014.5
20260507182516 10 0.0 0.0 0.00 0.51 0.10 89 1014.4
20260507181516 10 0.0 3.2 0.00 0.51 0.10 89 1014.3
20260507180516 10 293 1.6 4.8 0.00 0.51 0.10 88 1014.2
20260507175537 10 293 1.6 4.8 0.00 0.51 0.10 88 1014.3
20260507174516 10 293 1.6 4.8 0.00 0.51 0.10 88 1014.1
20260507173516 9 315 3.2 8.0 0.00 0.51 0.10 88 1014.1
20260507172516 10 293 4.8 9.7 0.00 0.51 0.10 87 1014.0
20260507171516 10 293 6.4 14.5 0.00 0.56 0.10 88 1014.0
20260507170516 10 293 4.8 11.3 0.00 0.61 0.10 88 1013.9
20260507165559 10 293 4.8 8.0 0.00 0.69 0.10 87 1013.9
20260507164516 10 315 4.8 9.7 0.00 0.74 0.10 87 1013.9
20260507163516 10 293 4.8 14.5 0.00 0.74 0.10 86 1013.8
20260507162516 10 270 8.0 14.5 0.00 0.74 0.10 86 1013.6
20260507161516 11 270 6.4 14.5 0.00 0.74 0.10 87 1013.6
20260507160556 11 270 6.4 11.3 0.00 0.74 0.10 87 1013.6
20260507155517 11 270 6.4 12.9 0.00 0.74 0.10 88 1013.5
20260507154516 11 270 4.8 9.7 0.00 0.74 0.10 89 1013.4
20260507153539 11 270 4.8 9.7 0.00 0.74 0.10 90 1013.4
20260507152516 11 270 1.6 6.4 0.00 0.74 0.10 90 1013.4
20260507151516 10 270 6.4 14.5 0.03 0.74 0.10 91 1013.4
20260507150516 10 270 6.4 17.7 0.03 0.74 0.10 91 1013.3
20260507145516 10 270 8.0 14.5 0.05 0.74 0.10 90 1013.3
20260507144516 10 270 8.0 19.3 0.05 0.74 0.10 91 1013.3
20260507143516 10 293 4.8 11.3 0.05 0.74 0.10 91 1013.2
20260507142516 10 315 3.2 8.0 0.05 0.74 0.10 90 1013.2
20260507141516 10 315 4.8 12.9 0.03 0.71 0.08 89 1013.1
20260507140516 10 293 6.4 14.5 0.03 0.71 0.08 89 1013.2
20260507135516 10 293 4.8 11.3 0.00 0.71 0.05 88 1013.1
20260507134516 11 248 6.4 12.9 0.00 0.71 0.05 87 1013.1
20260507133515 11 270 6.4 12.9 0.00 0.71 0.05 86 1013.0
20260507132556 11 270 11.3 17.7 0.00 0.71 0.05 85 1012.9
20260507131516 11 270 8.0 17.7 0.00 0.71 0.05 86 1012.9